{"data":{"norad_id":89304,"intl_designator":"","name":"UNKNOWN","alt_names":[],"object_type":"UNKNOWN","status":"UNKNOWN","operator":null,"country":null,"launch_date":null,"launch_site_code":null,"launch_vehicle":null,"mission":null,"orbit_class":"UNKNOWN","rcs_meters":null,"size_class":null,"mass_kg":null,"dimensions":null,"purposes":[],"wikipedia_slug":null,"has_3d_model":false,"image_url":null,"decayed_at":null,"tle_current":{"epoch":"2026-05-23T06:27:01.315008Z","epoch_age_seconds":218517,"freshness":"STALE","line1":"1 89304U          26143.26876522  .00050991  00000+0  31530-1 0  9994","line2":"2 89304  84.1749  59.7193 2878639 134.5689 357.6877  9.15082596453091","mean_motion":9.15082596,"eccentricity":0.2878639,"inclination_deg":84.1749,"raan_deg":59.7193,"arg_perigee_deg":134.5689,"mean_anomaly_deg":357.6877,"bstar":0.03153,"rev_number":45309,"period_min":157.36284421696,"perigee_km":497.68533060248,"apogee_km":6056.4571209788,"semimajor_km":9655.2082257907,"source":"CELESTRAK","updated_at":"2026-05-25T13:38:11.780412Z"}}}